Regional Weather Roundup
Issued by NWS Goodland, KS

Home | Current Version | Previous Version | Text Only | Print | Product List | Glossary On
Versions: 1 2 3 4 5 6 7 8 9 10 11 12 13 14 15 16 17 18 19 20 21 22 23 24 25 26 27 28 29 30 31 32 33 34 35 36 37 38 39 40 41 42 43 44 45 46 47 48 49 50
000
ASUS43 KGLD 300208
RWRGLD

GOODLAND FORECAST AREA HOURLY WEATHER ROUNDUP
NATIONAL WEATHER SERVICE GOODLAND KS
800 PM MDT TUE JUL 29 2014

...OFFICIAL OBSERVATIONS...

CITY           SKY/WX    TMP DP  RH WIND       PRES   REMARKS
GOODLAND KS    CLOUDY    76  61  59 SE10      30.10S
HILL CITY KS   CLOUDY    78  56  46 E13       30.09R
IMPERIAL NEB   CLOUDY    76  58  53 E16       30.13R
MCCOOK NEB     CLOUDY    75  58  55 E15       30.11R
AKRON CO       TSTM      61  60  97 NE12      30.21R FOG
BURLINGTON CO  CLOUDY    69  65  86 SW7       30.13R
LIMON CO       LGT RAIN  61  59  93 SE6       30.22R
$$

...UNOFFICIAL OBSERVATIONS...

CITY           SKY/WX    TMP DP  RH WIND       PRES   REMARKS
COLBY KS       LGT RAIN  70  64  83 SE21G29   30.12R
GOVE KS          N/A     78  32  18 MISG        N/A
LENORA KS        N/A     76  32  20 MISG        N/A
NORTON KS      CLEAR     75  50  41 E9        30.10R
OBERLIN KS     FAIR      79  54  41 E15G21    30.10R
ST FRANCIS KS  LGT RAIN  70  57  64 S10       30.10R
WAKEENEY KS      N/A     81  55  40 MISG        N/A
TRENTON NEB      N/A     74  32  21 NE16        N/A
KIT CARSON CO    N/A     63  59  88 N12         N/A
YUMA CO          N/A     62  60  92 E21         N/A
$$


USA.gov is the U.S. government's official web portal to all federal, state and local government web resources and services.